Location: Newark
(45.2500°N, 7.5833°E)
Time: 20:07:18
(UTC+00:00)

A-11 Canister half - Pass Details

Date: 04 February 2020
Orbit: 1524 x 1684 km, 47.3° (Epoch: 22 February)

Event Time Altitude Azimuth Distance (km) Brightness Sun altitude
Rises 12:38:11 0° 197° (SSW) 4,678 12.8 27.2°
Reaches altitude 10° 12:41:47 10° 186° (S) 3,688 12.7 27.1°
Maximum altitude 12:49:12 28° 132° (SE) 2,557 10.7 26.7°
Drops below altitude 10° 12:56:37 10° 78° (ENE) 3,705 10.8 26.3°
Sets 13:00:13 0° 68° (ENE) 4,704 11.2 26.1°
